This is the latest recevied weather packets stored in our database for station/object DL4ABR-6. If no packets are shown the sender has not sent any weather packets the latest 10 day(s).
| Time | Temp. | Humidity | Pressure | Rain* | Wind** | Luminosity | Snow |
|---|---|---|---|---|---|---|---|
| 1778126095 | 7.22° C | 99% | 1007.2 hPa | 4.57 mm | - | - | - |
| 1778125330 | 7.22° C | 99% | 1007 hPa | 4.57 mm | - | - | - |
| 1778124465 | 7.22° C | 99% | 1007 hPa | 4.06 mm | - | - | - |
| 1778123650 | 7.22° C | 99% | 1006.9 hPa | 3.3 mm | - | - | - |
| 1778122760 | 7.22° C | 99% | 1006.9 hPa | 3.05 mm | - | - | - |
| 1778121960 | 7.22° C | 99% | 1006.8 hPa | 2.79 mm | - | - | - |
| 1778121165 | 7.22° C | 99% | 1006.6 hPa | 2.79 mm | - | - | - |
| 1778120420 | 7.22° C | 99% | 1006.6 hPa | 2.54 mm | - | - | - |
| 1778119525 | 7.78° C | 99% | 1006.4 hPa | 2.29 mm | - | - | - |
| 1778118720 | 7.78° C | 99% | 1006.1 hPa | 2.29 mm | - | - | - |
| 1778117915 | 7.78° C | 99% | 1006.1 hPa | 2.29 mm | - | - | - |
| 1778117125 | 7.78° C | 99% | 1006.1 hPa | 2.03 mm | - | - | - |
| 1778116400 | 8.33° C | 99% | 1005.8 hPa | 2.03 mm | - | - | - |
| 1778115567 | 8.33° C | 99% | 1005.9 hPa | 1.78 mm | - | - | - |
| 1778114785 | 8.33° C | 99% | 1005.8 hPa | 1.78 mm | - | - | - |
| 1778114020 | 8.89° C | 99% | 1005.7 hPa | 1.78 mm | - | - | - |
| 1778113155 | 8.89° C | 99% | 1005.7 hPa | 1.78 mm | - | - | - |
| 1778112410 | 8.89° C | 99% | 1005.4 hPa | 1.78 mm | - | - | - |
| 1778111670 | 8.89° C | 99% | 1005.6 hPa | 1.78 mm | - | - | - |
| 1778110825 | 8.89° C | 99% | 1005.4 hPa | 1.78 mm | - | - | - |
| 1778110005 | 8.89° C | 99% | 1005.5 hPa | 1.52 mm | - | - | - |
| 1778109115 | 8.89° C | 99% | 1005.1 hPa | 1.52 mm | - | - | - |
| 1778108360 | 8.89° C | 99% | 1005.6 hPa | 1.27 mm | - | - | - |
| 1778107535 | 8.89° C | 99% | 1005.3 hPa | 1.27 mm | - | - | - |
| 1778106805 | 8.89° C | 99% | 1005 hPa | 1.02 mm | - | - | - |
* Rain since midnight (hover to see other rain measurements)
** Current wind speed in m/s (hover to see current wind gust speed)